Location: Putah Creek Observatory
(38.7021°N, 122.3865°W)
Time: 13:38:41
(UTC-08:00)

ISS - Visible Passes

Search period start: 18 January 2019 00:00
Search period end: 28 January 2019 00:00
Orbit: 404 x 410 km, 51.6° (Epoch: 18 January)

Date Brightness Start Highest point End Pass type
(mag) Time Alt. Az. Time Alt. Az. Time Alt. Az.
19 Jan -1.5 19:06:17 10° S 19:07:19 17° S 19:07:19 17° S visible
20 Jan -1.7 18:16:13 10° SSE 18:17:54 13° SE 18:18:34 13° ESE visible
20 Jan -0.6 19:50:50 10° WSW 19:51:19 13° WSW 19:51:19 13° WSW visible
21 Jan -3.7 18:59:27 10° SW 19:02:29 68° S 19:02:29 68° S visible
22 Jan -2.9 18:08:23 10° SSW 18:11:25 35° SE 18:13:33 16° ENE visible
22 Jan -0.9 19:45:09 10° W 19:46:17 17° WNW 19:46:17 17° WNW visible
23 Jan -2.9 18:53:19 10° WSW 18:56:29 43° NNW 18:57:15 36° N visible
24 Jan -3.8 18:01:45 10° SW 18:05:02 83° NW 18:08:09 11° NE visible
24 Jan -0.9 19:39:54 10° WNW 19:40:53 14° NW 19:40:53 14° NW visible
25 Jan -1.8 18:47:43 10° W 18:50:21 22° NNW 18:51:42 17° N visible
26 Jan -2.5 17:55:44 10° W 17:58:47 34° NNW 18:01:50 10° NE visible
26 Jan -0.7 19:35:09 10° NNW 19:35:10 10° NNW 19:35:10 10° NNW visible
27 Jan -1.3 18:42:33 10° NW 18:44:21 14° NNW 18:45:52 11° N visible
